Weather in Zakopane

Poland     49°18′02″N   19°57′44″E
temp.,
°C
wind,
m/s
gust,
m/s
humid.,
%
clouds,
%
prec.,
mm/h
press.,
hPa
HPBL,
m
17 may, tue
tue1723:00+9s2176100 0.0 101916
02:00+9sw116954 0.0 101913
05:00+9sw1161100 0.0 101712
08:00+7ene1196100 1.9 101974
11:00+9e1195100 2.5 1018100
14:00+8ene1298100 7.4 1017116
17:00+7ne2398100 6.7 1018185
20:00+5nne2497100 7.8 1020173
18 may, wed
wed1823:00+4nne2598100 0.2 1023285
02:00+2n23945 0.2 102574
05:000nnw239825 0.0 102764
08:00+2n34730 0.0 1029398
11:00+8nne33290 0.0 10281000
14:00+11ne22280 0.0 10271331
17:00+11nne22340 0.0 10271106
20:00+5sse21660 0.0 102912
19 may, thu
thu1923:00+3s21640 0.0 103116
02:00+3ssw11685 0.0 103115
05:00+3s21685 0.0 103116
08:00+11ssw11415 0.0 1028353
11:00+16nw11300 0.0 10281097
14:00+18nnw11315 0.0 10261623
17:00+17nnw113758 0.0 10261365
20:00+10ssw22725 0.0 102616
20 may, fri
fri2023:00+7ssw336774 0.0 102743
02:00+6ssw3455100 0.0 102758
05:00+6ssw3351100 0.0 102651
08:00+13sw344217 0.0 1024156
11:00+15ssw2353100 0.0 1023255
14:00+20w354540 0.0 10211661
17:00+19w135369 0.1 10201366
20:00+13ssw2285100 0.2 102031
21 may, sat
sat2123:00+10ssw3488100 0.0 101969
02:00+11wsw2287100 0.1 101835
05:00+11sw249673 1.4 101683
08:00+15w398029 1.4 10151094
11:00+17wnw3759100 0.1 10151458
14:00+18wnw575493 0.3 10141751
17:00+16wnw4753100 0.1 10151644
20:00+10wnw23925 0.4 101657